Location: Beuerbach
(48.1459°N, 10.9174°E)
Time: 21:53:27
(UTC+00:00)

SL-16 R/B - Pass Details

Date: 15 August 2024
Orbit: 842 x 845 km, 71.0° (Epoch: 07 September)

Event Time Altitude Azimuth Distance (km) Brightness Sun altitude
Exits shadow 01:26:51 - 285° (WNW) 3,266 5.1 -21.9°
Reaches altitude 10° 01:31:05 10° 318° (NW) 2,474 4.8 -21.5°
Maximum altitude 01:32:34 11° 333° (NNW) 2,407 4.9 -21.4°
Drops below altitude 10° 01:34:03 10° 348° (NNW) 2,476 5.2 -21.2°
Sets 01:38:50 0° 24° (NNE) 3,416 6.8 -20.8°
